Hourly Weather Rudka

Today, 20 April, Tuesday

Time Temperature Precipitation Wind Pressure Humidity
00:00 +6°C° 0 mm 2 mps 739 mmHg 84%
01:00 +5°C° 0 mm 2 mps 739 mmHg 86%
02:00 +5°C° 0 mm 2 mps 739 mmHg 89%
03:00 +5°C° 0 mm 2 mps 739 mmHg 90%
04:00 +4°C° 0 mm 2 mps 739 mmHg 90%
05:00 +5°C° 0 mm 1 mps 738 mmHg 90%
06:00 +5°C° 0 mm 2 mps 738 mmHg 86%
07:00 +6°C° 0 mm 2 mps 739 mmHg 83%
08:00 +7°C° 0 mm 2 mps 739 mmHg 79%
09:00 +8°C° 0.1 mm 2 mps 738 mmHg 73%
10:00 +10°C° 0.1 mm 3 mps 738 mmHg 68%
11:00 +11°C° 0.1 mm 3 mps 738 mmHg 63%
12:00 +11°C° 0.2 mm 3 mps 738 mmHg 61%
13:00 +12°C° 0.2 mm 3 mps 737 mmHg 59%
14:00 +12°C° 0.2 mm 3 mps 737 mmHg 57%
15:00 +12°C° 0.4 mm 3 mps 737 mmHg 59%
16:00 +11°C° 0.4 mm 3 mps 737 mmHg 62%
17:00 +11°C° 0.4 mm 3 mps 736 mmHg 64%
18:00 +10°C° 0.2 mm 3 mps 737 mmHg 70%
19:00 +9°C° 0.2 mm 2 mps 737 mmHg 76%
20:00 +8°C° 0.2 mm 2 mps 737 mmHg 82%
21:00 +7°C° 0 mm 2 mps 737 mmHg 83%
22:00 +7°C° 0 mm 1 mps 737 mmHg 84%
23:00 +7°C° 0 mm 1 mps 737 mmHg 86%

Tomorrow, 21 April, Wednesday

Time Temperature Precipitation Wind Pressure Humidity
00:00 +7°C° 0 mm 1 mps 737 mmHg 86%
01:00 +7°C° 0 mm 1 mps 737 mmHg 85%
02:00 +7°C° 0 mm 1 mps 737 mmHg 85%
03:00 +7°C° 0 mm 1 mps 737 mmHg 87%
04:00 +5°C° 0 mm 2 mps 737 mmHg 88%
05:00 +5°C° 0 mm 2 mps 737 mmHg 90%
06:00 +6°C° 0 mm 2 mps 737 mmHg 88%
07:00 +7°C° 0 mm 3 mps 737 mmHg 85%
08:00 +8°C° 0 mm 3 mps 737 mmHg 83%
09:00 +9°C° 0.3 mm 3 mps 737 mmHg 75%
10:00 +11°C° 0.3 mm 4 mps 737 mmHg 68%
11:00 +13°C° 0.3 mm 4 mps 737 mmHg 61%
12:00 +13°C° 0.4 mm 5 mps 737 mmHg 57%
13:00 +14°C° 0.4 mm 5 mps 737 mmHg 54%
14:00 +14°C° 0.4 mm 5 mps 737 mmHg 51%
15:00 +14°C° 0.3 mm 5 mps 737 mmHg 55%
16:00 +13°C° 0.3 mm 5 mps 737 mmHg 60%
17:00 +13°C° 0.3 mm 5 mps 737 mmHg 64%
18:00 +12°C° 0.4 mm 4 mps 737 mmHg 71%
19:00 +10°C° 0.4 mm 4 mps 737 mmHg 77%
20:00 +9°C° 0.4 mm 3 mps 737 mmHg 84%
21:00 +8°C° 0.1 mm 4 mps 737 mmHg 86%
22:00 +7°C° 0.1 mm 4 mps 737 mmHg 88%
23:00 +7°C° 0.1 mm 4 mps 738 mmHg 90%

Day after tomorrow, 22 April, Thursday

Time Temperature Precipitation Wind Pressure Humidity
00:00 +6°C° 0 mm 4 mps 738 mmHg 90%
01:00 +6°C° 0 mm 4 mps 738 mmHg 91%
02:00 +5°C° 0 mm 4 mps 738 mmHg 92%
03:00 +5°C° 0 mm 4 mps 738 mmHg 92%
04:00 +5°C° 0 mm 3 mps 738 mmHg 92%
05:00 +5°C° 0 mm 3 mps 738 mmHg 93%
06:00 +6°C° 0 mm 4 mps 738 mmHg 90%
07:00 +7°C° 0 mm 4 mps 738 mmHg 87%
08:00 +8°C° 0 mm 4 mps 738 mmHg 84%
09:00 +8°C° 0.9 mm 4 mps 739 mmHg 82%
10:00 +10°C° 0.9 mm 4 mps 739 mmHg 80%
11:00 +10°C° 0.9 mm 3 mps 739 mmHg 78%
12:00 +11°C° 0.2 mm 4 mps 739 mmHg 74%
13:00 +12°C° 0.2 mm 4 mps 739 mmHg 69%
14:00 +13°C° 0.2 mm 5 mps 738 mmHg 64%
15:00 +12°C° 0.5 mm 5 mps 738 mmHg 69%
16:00 +12°C° 0.5 mm 5 mps 738 mmHg 73%
17:00 +10°C° 0.5 mm 6 mps 738 mmHg 78%
18:00 +8°C° 0.5 mm 5 mps 739 mmHg 82%
19:00 +6°C° 0.5 mm 5 mps 739 mmHg 87%
20:00 +5°C° 0.5 mm 5 mps 740 mmHg 91%
21:00 +4°C° 0 mm 4 mps 740 mmHg 92%
22:00 +3°C° 0 mm 3 mps 740 mmHg 93%
23:00 +3°C° 0 mm 3 mps 740 mmHg 94%

23 April, Friday

Time Temperature Precipitation Wind Pressure Humidity
00:00 +3°C° 0 mm 3 mps 740 mmHg 93%
01:00 +3°C° 0 mm 3 mps 740 mmHg 92%
02:00 +3°C° 0 mm 3 mps 740 mmHg 91%
03:00 +2°C° 0 mm 3 mps 740 mmHg 90%
04:00 +2°C° 0 mm 3 mps 741 mmHg 90%
05:00 +1°C° 0 mm 3 mps 741 mmHg 89%
06:00 +1°C° 0 mm 4 mps 741 mmHg 85%
07:00 +1°C° 0 mm 4 mps 741 mmHg 81%
08:00 +2°C° 0 mm 5 mps 742 mmHg 76%
09:00 +3°C° 0 mm 5 mps 742 mmHg 68%
10:00 +5°C° 0 mm 5 mps 742 mmHg 60%
11:00 +5°C° 0 mm 6 mps 742 mmHg 52%
12:00 +5°C° 0.1 mm 6 mps 742 mmHg 51%
13:00 +7°C° 0.1 mm 6 mps 742 mmHg 49%
14:00 +6°C° 0.1 mm 7 mps 742 mmHg 48%
15:00 +7°C° 0.1 mm 6 mps 742 mmHg 49%
16:00 +7°C° 0.1 mm 5 mps 741 mmHg 51%
17:00 +7°C° 0.1 mm 5 mps 741 mmHg 53%
18:00 +5°C° 0.1 mm 4 mps 741 mmHg 60%
19:00 +4°C° 0.1 mm 3 mps 741 mmHg 67%
20:00 +3°C° 0.1 mm 3 mps 741 mmHg 74%
21:00 +3°C° 0.2 mm 4 mps 742 mmHg 79%
22:00 +1°C° 0.2 mm 5 mps 742 mmHg 84%
23:00 +1°C° 0.2 mm 6 mps 742 mmHg 89%

24 April, Saturday

Time Temperature Precipitation Wind Pressure Humidity
00:00 +1°C° 0.1 mm 6 mps 742 mmHg 88%
01:00 -1°C° 0.1 mm 6 mps 742 mmHg 87%
02:00 -2°C° 0.1 mm 6 mps 742 mmHg 86%
03:00 -1°C° 0 mm 5 mps 743 mmHg 89%
04:00 -2°C° 0 mm 5 mps 743 mmHg 91%
05:00 -2°C° 0 mm 4 mps 743 mmHg 93%
06:00 -1°C° 0 mm 4 mps 743 mmHg 85%
07:00 0°C° 0 mm 5 mps 744 mmHg 78%
08:00 +1°C° 0 mm 5 mps 744 mmHg 70%
09:00 +2°C° 0 mm 6 mps 744 mmHg 62%
10:00 +4°C° 0 mm 6 mps 744 mmHg 54%
11:00 +5°C° 0 mm 6 mps 744 mmHg 45%
12:00 +5°C° 0 mm 6 mps 743 mmHg 44%
13:00 +7°C° 0 mm 6 mps 743 mmHg 43%
14:00 +6°C° 0 mm 7 mps 743 mmHg 42%
15:00 +7°C° 0 mm 6 mps 743 mmHg 44%
16:00 +7°C° 0 mm 6 mps 742 mmHg 47%
17:00 +7°C° 0 mm 5 mps 742 mmHg 49%
18:00 +6°C° 0 mm 4 mps 742 mmHg 56%
19:00 +5°C° 0 mm 4 mps 742 mmHg 63%
20:00 +3°C° 0 mm 3 mps 742 mmHg 70%
21:00 +3°C° 0.1 mm 3 mps 742 mmHg 76%
22:00 +3°C° 0.1 mm 4 mps 742 mmHg 82%
23:00 +3°C° 0.1 mm 4 mps 742 mmHg 88%

25 April, Sunday

Time Temperature Precipitation Wind Pressure Humidity
00:00 +2°C° 0.1 mm 5 mps 742 mmHg 88%
01:00 +2°C° 0.1 mm 5 mps 741 mmHg 89%
02:00 +1°C° 0.1 mm 5 mps 741 mmHg 89%
03:00 +1°C° 0 mm 4 mps 741 mmHg 90%
04:00 0°C° 0 mm 4 mps 741 mmHg 90%
05:00 +1°C° 0 mm 3 mps 741 mmHg 91%
06:00 +1°C° 0 mm 3 mps 741 mmHg 87%
07:00 +1°C° 0 mm 3 mps 742 mmHg 82%
08:00 +2°C° 0 mm 3 mps 742 mmHg 78%
09:00 +3°C° 0 mm 3 mps 742 mmHg 67%
10:00 +4°C° 0 mm 3 mps 741 mmHg 57%
11:00 +7°C° 0 mm 3 mps 741 mmHg 46%
12:00 +7°C° 0 mm 3 mps 741 mmHg 45%
13:00 +8°C° 0 mm 3 mps 740 mmHg 44%
14:00 +8°C° 0 mm 3 mps 740 mmHg 43%
15:00 +7°C° 0.3 mm 3 mps 740 mmHg 54%
16:00 +5°C° 0.3 mm 3 mps 740 mmHg 66%
17:00 +4°C° 0.3 mm 4 mps 740 mmHg 77%
18:00 +3°C° 0.2 mm 3 mps 740 mmHg 77%
19:00 +3°C° 0.2 mm 3 mps 740 mmHg 78%
20:00 +4°C° 0.2 mm 2 mps 740 mmHg 78%
21:00 +3°C° 0 mm 2 mps 740 mmHg 80%
22:00 +2°C° 0 mm 2 mps 740 mmHg 82%
23:00 0°C° 0 mm 3 mps 740 mmHg 84%
Show more